East Milton, MA

6:22 PM EST on December 14, 2017 (GMT -0500)
East Milton

Weather History for KMQE - April, 2013

Change the Weather History Date:

Saturday, April 27, 2013

  Actual Average (KOWD) Record (KOWD)
Temperature  
Mean Temperature 52 °F -  
Max Temperature 63 °F 62 °F 79 °F (2011)
Min Temperature 43 °F 38 °F 25 °F (2002)
Degree Days  
Heating Degree Days 12    
Growing Degree Days 2 (Base 50)    
Moisture  
Dew Point 34 °F    
Average Humidity 54    
Maximum Humidity 89    
Minimum Humidity 30    
Precipitation  
Precipitation 0.00 in - - ()
Sea Level Pressure  
Sea Level Pressure 30.39 in    
Wind  
Wind Speed 6 mph (SE)    
Max Wind Speed 14 mph    
Max Gust Speed 21 mph    
Averages and records for this station are not official NWS values.
T = Trace of Precipitation, MM = Missing Value Source: NWS Daily Summary

Daily Weather History Graph

Daily Weather History Graph

Search for Another Location

Airport or City:

Trip Planner

Search our weather history database for the weather conditions in past years. The results will help you decide how hot, cold, wet, or windy it might be!

Date:

Astronomy

Apr. 27, 2013 Rise Set
Actual Time 5:45 AM EDT 7:39 PM EDT
Civil Twilight 5:15 AM EDT 8:09 PM EDT
Nautical Twilight 4:38 AM EDT 8:46 PM EDT
Astronomical Twilight 3:58 AM EDT 9:26 PM EDT
Moon 10:07 PM EDT (4/27) 6:59 AM EDT (4/27)
Length of Visible Light 14h 54m
Length of Day
13h 54m
Waning Gibbous, 95% of the Moon is Illuminated
Apr 27
Waning Gibbous
May 2
Last Quarter
May 9
New
May 18
First Quarter
May 25
Full

Hourly Weather History & Observations

Time (EDT) Temp. Windchill Dew Point Humidity Pressure Visibility Wind Dir Wind Speed Gust Speed Precip Events Conditions
12:54 AM 43.0 °F 39.5 °F 39.0 °F 86% 30.44 in - SE 5.8 mph - N/A   Unknown
1:54 AM 44.1 °F 41.5 °F 37.9 °F 79% 30.43 in - SSE 4.6 mph - N/A   Unknown
2:54 AM 46.0 °F 43.9 °F 28.9 °F 51% 30.43 in - SSE 4.6 mph - N/A   Unknown
3:54 AM 44.1 °F 42.5 °F 36.0 °F 73% 30.43 in - West 3.5 mph - N/A   Unknown
4:54 AM 44.1 °F - 35.1 °F 71% 30.42 in - Calm Calm - N/A   Unknown
5:54 AM 43.0 °F 40.3 °F 39.0 °F 86% 30.42 in - NE 4.6 mph - N/A   Unknown
6:54 AM 44.1 °F 39.5 °F 41.0 °F 89% 30.43 in - NNE 8.1 mph - N/A   Unknown
7:54 AM 46.9 °F - 37.9 °F 71% 30.44 in - NNE 6.9 mph - N/A   Unknown
8:54 AM 50.0 °F - 35.1 °F 57% 30.44 in - East 4.6 mph - N/A   Unknown
9:54 AM 54.0 °F - 35.1 °F 49% 30.43 in - Calm Calm - N/A   Unknown
10:54 AM 55.9 °F - 32.0 °F 40% 30.44 in - Variable 6.9 mph - N/A   Unknown
11:54 AM 59.0 °F - 33.1 °F 38% 30.43 in - SW 5.8 mph - N/A   Unknown
12:54 PM 61.0 °F - 35.1 °F 38% 30.40 in - ENE 8.1 mph - N/A   Unknown
1:54 PM 60.1 °F - 30.9 °F 33% 30.38 in - ENE 11.5 mph 16.1 mph N/A   Unknown
2:54 PM 61.0 °F - 30.9 °F 32% 30.36 in - ENE 9.2 mph 16.1 mph N/A   Unknown
3:54 PM 62.1 °F - 30.0 °F 30% 30.35 in - East 8.1 mph 18.4 mph N/A   Unknown
4:54 PM 60.1 °F - 32.0 °F 35% 30.34 in - SE 6.9 mph 16.1 mph N/A   Unknown
5:54 PM 59.0 °F - 33.1 °F 38% 30.33 in - SSE 8.1 mph 17.3 mph N/A   Unknown
6:54 PM 57.0 °F - 30.9 °F 37% 30.33 in - SSE 9.2 mph 18.4 mph N/A   Unknown
7:54 PM 53.1 °F - 30.9 °F 43% 30.33 in - South 13.8 mph 20.7 mph N/A   Unknown
8:54 PM 50.0 °F - 30.9 °F 48% 30.35 in - South 11.5 mph - N/A   Unknown
9:54 PM 48.0 °F - 30.0 °F 50% 30.36 in - South 12.7 mph - N/A   Unknown
10:54 PM 46.9 °F - 33.1 °F 59% 30.36 in - SSW 12.7 mph - N/A   Unknown
11:54 PM 46.0 °F 40.2 °F 33.1 °F 61% 30.36 in - SW 12.7 mph - N/A   Unknown